Temp
25 26 25 25 26 26 26 27 27 26 26 26 26 26 26 26 26 26 26 26 26 27 27 27 25 24 24 23 23 23 23 23 23 22 22 22 22 21 22 22 22 22 22 22 22 22 22 22 22 22 22 21 21 21 21 20 20 20 20 19 19 19 19 19 19 19 19 19 19 19 19 19 19 18
25 26 25 25 25 26 26 26 26 26 25 25 25 25 26 25 25 26 26 26 26 27 27 27 25 24 23 23 23 23 23 23 23 22 22 22 22 22 22 22 22 22 22 22 22 22 22 22 22 22 22 21 21 21 21 20 20 20 20 19 19 19 19 19 19 19 19 19 19 18 18 18 18 18
25 25 26 25 25 25 25 25 26 26 25 25 25 25 25 25 25 26 26 25 26 26 27 27 25 24 23 23 23 23 23 23 22 22 22 22 22 22 22 22 22 22 22 22 22 22 22 22 22 21 21 21 21 21 20 20 20 20 20 19 19 19 19 19 19 19 18 18 18 18 18 18 18 18
25 25 25 25 25 25 25 25 25 25 25 24 25 25 25 25 25 25 25 25 26 26 26 26 26 24 24 23 23 23 23 22 22 22 22 22 22 21 21 22 22 22 22 22 22 22 22 21 21 21 21 21 21 20 20 20 19 19 19 19 19 19 19 18 18 18 18 18 18 18 18 18 18 18
25 25 25 25 25 25 25 25 25 25 25 24 25 25 25 25 25 25 25 25 25 25 25 25 26 25 24 23 23 23 23 22 21 22 22 22 21 21 22 22 21 21 22 21 21 21 21 21 21 21 20 20 20 20 19 19 19 19 19 19 19 19 18 18 18 18 18 18 18 18 18 18 18 18
25 25 25 25 25 24 24 24 25 25 25 25 25 25 25 25 25 24 24 25 25 25 25 25 25 25 24 24 23 23 23 22 21 21 22 22 21 21 22 22 22 22 22 22 21 21 21 21 20 20 20 20 19 19 19 19 19 19 19 19 19 18 18 18 18 18 18 18 18 18 18 18 18 18
25 25 24 25 25 24 24 24 24 25 25 25 25 25 25 25 25 25 24 24 25 25 25 24 24 24 24 23 23 22 22 22 21 21 22 22 21 21 22 22 22 22 21 21 21 21 21 21 20 20 20 19 19 19 19 19 19 18 18 18 18 18 18 18 18 18 18 18 17 17 17 17 17 17
25 25 24 25 25 25 24 24 24 25 25 25 25 25 25 24 25 25 24 24 24 25 25 24 24 24 24 23 23 22 22 22 22 21 22 22 21 22 22 22 22 22 21 21 21 21 21 20 20 20 19 19 19 19 19 18 18 18 18 18 18 18 18 18 18 18 17 17 17 17 17 17 17 17
25 25 25 25 25 25 24 24 24 24 25 25 25 25 25 24 24 25 24 24 24 24 25 24 24 24 24 23 23 22 22 22 22 22 22 22 21 21 21 22 22 22 21 21 21 20 20 20 20 19 19 19 19 19 18 18 18 18 18 18 18 18 18 17 17 17 17 17 17 17 17 16 16 16
25 25 25 25 25 25 25 24 24 24 25 25 25 25 25 24 24 24 24 24 23 23 24 24 24 24 23 23 23 22 22 22 22 22 21 21 21 21 21 22 22 22 21 21 20 20 20 20 20 19 19 19 19 19 18 18 18 18 17 17 17 17 17 17 17 17 17 16 16 16 16 16 16 16
25 25 25 25 25 25 25 25 24 24 24 24 24 24 24 24 24 24 24 24 23 23 23 24 24 24 23 23 23 22 22 22 22 22 22 21 21 21 21 21 21 22 22 22 21 21 21 20 20 20 19 19 19 19 18 18 18 18 17 17 17 17 17 17 17 17 16 16 16 16 16 16 16 16
26 26 25 25 25 25 25 25 25 25 24 24 24 24 24 24 24 24 24 24 23 23 23 24 24 24 23 23 23 23 22 22 22 22 22 22 22 21 21 21 21 21 21 21 22 22 22 21 20 20 20 19 19 19 19 19 19 18 17 17 16 16 16 16 16 16 16 16 16 16 16 16 16 16
26 26 26 26 26 26 25 25 25 25 24 24 24 24 24 24 24 24 24 24 23 23 24 24 24 24 24 23 23 23 22 22 22 22 22 22 22 22 22 21 21 21 21 21 21 22 21 21 21 20 20 20 19 19 19 19 18 17 17 16 16 16 16 16 16 16 16 16 16 16 16 16 16 16
26 26 26 26 26 26 25 25 25 25 25 24 24 24 24 24 24 24 24 24 24 23 24 24 24 24 24 24 23 23 23 22 22 23 22 22 22 22 22 22 21 21 21 21 21 21 21 21 20 20 20 20 20 20 19 18 18 17 17 17 16 16 16 16 16 16 16 16 16 16 16 16 16 16
26 26 27 27 27 26 26 25 25 25 24 24 24 24 24 23 24 24 24 24 24 24 24 24 24 24 24 24 24 23 23 23 23 23 22 22 22 22 22 22 21 21 20 20 20 20 20 20 20 20 20 20 20 20 19 18 18 18 17 17 17 16 16 16 15 15 15 15 15 15 15 15 15 15
26 26 27 27 27 26 26 25 25 24 24 24 24 24 24 23 23 23 23 24 24 24 24 24 24 25 24 24 24 24 24 23 23 23 22 22 22 22 22 22 22 21 20 20 20 20 20 20 20 20 20 20 20 20 19 19 18 18 17 17 17 16 16 15 15 15 15 15 15 15 15 15 15 15
26 26 26 27 26 26 26 25 24 24 24 24 24 24 24 23 23 23 23 23 24 24 24 24 24 24 24 24 24 24 24 23 23 22 22 22 22 21 21 22 22 21 20 20 20 20 20 20 20 20 20 20 20 20 19 19 18 18 17 17 17 16 16 15 15 15 15 15 15 15 15 15 15 15
26 26 26 26 26 26 26 25 24 24 24 24 24 23 23 23 23 23 23 23 23 23 24 24 24 24 24 24 24 24 23 23 23 22 22 22 22 21 21 21 21 21 20 20 20 20 20 20 21 21 21 20 20 20 19 19 18 18 17 17 17 16 16 16 15 15 15 15 15 15 15 15 15 15
26 26 26 26 26 26 25 25 24 24 23 23 23 23 23 23 23 23 22 23 23 23 23 23 24 24 24 24 23 23 23 22 22 22 22 22 21 21 21 21 21 20 20 20 19 20 20 20 21 21 20 20 20 20 19 19 18 18 17 17 17 16 16 16 16 15 15 15 15 15 15 15 15 15
26 26 26 26 26 26 25 25 24 24 23 23 22 22 22 23 23 23 22 22 22 23 23 23 23 24 24 23 23 23 22 22 22 22 21 21 21 21 21 21 21 21 21 20 19 20 20 20 20 20 20 20 20 19 19 19 18 18 17 17 17 17 16 16 16 16 16 15 15 15 15 15 15 15
26 26 26 26 26 26 25 25 24 24 24 23 22 22 22 22 23 23 23 22 22 22 23 23 23 23 23 23 23 22 22 21 21 21 21 21 21 21 21 21 22 23 22 21 20 20 20 20 20 20 20 19 19 19 19 19 19 18 18 17 17 17 17 16 16 16 16 16 15 15 15 15 15 15
26 26 26 26 26 26 25 25 24 24 24 23 23 23 23 23 23 23 23 23 22 22 22 22 22 22 22 22 22 22 21 21 21 21 21 21 22 22 21 22 23 23 23 22 21 20 20 20 20 19 19 19 19 19 20 19 19 18 18 18 18 17 17 17 16 16 16 16 16 16 16 16 15 15
26 26 26 26 26 25 26 25 25 24 24 24 23 23 23 23 23 24 24 24 23 21 21 21 21 22 22 22 21 21 21 21 21 21 21 22 22 22 23 23 23 23 22 22 21 20 20 20 20 19 19 19 20 20 19 19 19 18 18 18 18 17 17 17 17 17 17 17 16 16 16 16 16 15
26 26 26 26 25 25 25 25 25 24 24 24 23 23 24 24 24 24 24 24 23 21 21 21 21 21 21 21 20 20 20 20 20 20 20 21 22 22 22 23 23 23 22 21 20 19 20 20 19 19 19 19 19 19 19 19 19 18 18 18 18 18 18 17 17 17 17 17 17 17 17 16 16 15
26 26 26 26 25 25 25 25 25 24 24 24 24 24 24 24 25 25 25 24 23 21 21 21 21 20 20 20 20 20 20 20 20 20 20 21 21 22 22 22 23 23 21 19 19 19 19 19 19 19 18 18 19 19 19 18 18 18 18 18 18 18 18 18 18 18 18 18 17 17 17 16 16 16
26 26 27 26 26 25 25 25 25 24 24 24 24 24 24 24 24 24 24 23 22 21 21 21 21 21 20 21 21 20 19 19 20 20 20 20 21 21 22 22 22 22 20 19 18 18 18 18 18 18 18 18 18 19 19 18 18 18 18 18 18 18 18 18 18 18 18 18 18 17 17 17 16 16
26 26 27 27 26 25 25 25 24 24 23 24 24 23 24 24 24 24 24 23 21 21 21 21 21 21 21 21 21 21 20 20 20 20 20 20 21 21 21 21 20 20 19 18 18 17 17 17 17 17 18 18 18 18 18 19 19 18 18 18 18 18 18 18 18 18 18 18 17 17 17 17 17 17
26 26 27 27 26 26 25 24 24 24 23 23 23 23 23 23 23 24 23 22 21 21 21 21 21 21 21 21 21 21 20 20 20 20 20 20 20 20 20 20 19 19 19 18 18 17 17 16 17 17 17 17 17 17 18 18 18 18 18 18 18 18 18 18 18 18 18 18 17 17 17 17 17 17
26 26 26 27 26 26 25 24 24 23 23 23 23 23 22 23 23 23 23 22 21 21 21 21 21 21 21 21 21 21 21 21 21 20 20 20 20 20 20 19 18 18 18 18 18 17 17 17 16 17 17 16 17 17 17 18 18 18 18 18 18 18 18 18 18 18 18 18 17 17 17 17 17 17
25 26 26 26 26 25 25 24 24 23 22 22 22 22 22 22 22 23 22 21 21 21 21 21 22 22 21 21 21 21 21 21 20 20 20 20 19 19 19 18 18 17 17 17 17 17 17 17 16 16 16 16 16 17 17 17 17 17 17 17 17 18 18 18 18 18 18 18 17 17 17 17 16 16
24 25 25 25 25 25 24 24 24 23 22 21 21 21 21 22 22 22 22 21 21 21 21 21 22 22 21 21 21 21 21 20 20 19 20 19 19 19 19 18 18 17 17 18 17 17 17 17 16 16 16 16 16 16 17 17 17 17 17 17 17 18 18 18 18 18 18 18 17 17 16 16 16 16
24 24 23 22 21 21 22 22 21 20 20 20 20 20 20 21 21 21 21 21 21 21 21 21 21 21 21 21 21 20 20 20 19 19 19 19 19 19 18 18 18 18 18 18 18 17 17 17 16 16 16 16 16 16 16 16 16 17 17 17 17 18 18 18 18 18 18 17 17 16 16 16 16 16
23 22 21 20 19 18 19 19 18 18 18 18 19 19 20 20 21 21 21 21 21 21 21 21 21 20 20 21 20 20 19 19 19 18 18 18 19 19 19 18 18 18 19 19 19 18 17 17 16 16 15 15 15 15 15 16 16 17 17 17 18 18 18 18 18 18 17 17 16 16 16 16 16 16
22 21 21 20 19 18 18 17 18 18 18 17 18 18 19 20 20 20 20 21 21 21 21 20 20 20 21 21 20 19 19 18 18 18 18 18 18 19 19 19 19 19 19 19 19 19 18 17 16 16 15 15 15 15 15 15 16 17 17 17 18 18 18 18 18 17 17 16 16 16 16 16 16 16
20 19 20 19 19 18 18 18 18 18 18 18 18 18 19 19 20 20 20 20 20 20 20 20 20 20 21 20 19 19 18 18 18 18 18 18 18 18 19 19 19 19 19 19 19 19 18 17 17 16 16 16 15 15 15 15 16 17 17 17 18 18 18 17 17 17 16 16 16 16 16 16 16 16
20 19 19 19 19 18 17 18 18 18 18 18 18 18 18 19 19 19 19 20 20 20 20 20 20 20 20 19 19 18 18 18 18 18 18 18 18 18 18 19 19 19 19 19 19 19 18 18 17 17 17 17 17 18 18 17 17 17 17 18 18 17 17 17 17 16 16 16 16 16 16 16 16 16
20 20 19 19 19 19 18 18 18 18 18 18 17 18 18 19 19 19 19 20 20 20 20 20 20 19 19 19 18 18 18 18 18 19 18 18 18 19 18 19 19 19 19 19 19 19 18 18 18 18 18 18 19 19 20 18 17 17 17 17 17 17 17 16 16 16 16 16 16 16 16 16 16 16
19 20 20 19 19 19 18 18 18 18 18 17 17 17 18 18 19 19 19 20 20 20 19 19 19 19 19 19 18 18 19 19 19 19 19 18 18 19 19 19 19 19 19 19 19 18 18 18 18 18 18 18 19 20 20 19 17 17 17 17 17 17 16 16 16 16 17 17 17 16 16 16 15 15
18 19 20 20 19 19 19 18 18 18 17 17 17 17 18 18 19 19 19 19 19 19 18 18 19 19 19 19 19 19 19 19 19 20 20 19 19 19 19 19 19 19 19 19 18 18 18 18 18 18 18 18 19 19 19 18 18 17 17 16 16 16 16 16 16 17 17 16 16 16 16 15 15 15
16 18 19 20 19 19 19 19 18 18 18 18 18 18 18 18 18 18 19 19 19 18 18 18 19 19 19 19 19 19 19 20 19 19 20 20 20 19 19 19 19 19 19 19 19 19 18 18 18 18 18 18 18 17 17 17 17 17 17 17 17 17 16 16 16 16 16 16 16 15 15 15 15 15
16 17 18 19 19 19 19 18 18 18 18 17 17 18 18 18 18 18 18 18 18 18 18 19 19 19 19 19 19 19 19 20 19 19 19 20 20 20 19 19 19 19 19 19 19 19 19 18 18 18 18 17 17 16 16 16 17 17 17 18 18 17 17 17 16 16 16 16 15 15 15 15 15 15
16 16 17 18 19 19 18 18 18 18 17 17 17 17 18 18 18 18 18 18 18 18 18 19 19 19 19 19 19 19 19 19 20 20 20 21 21 20 19 19 19 19 19 19 19 19 19 18 17 17 17 17 16 16 17 17 18 18 18 18 18 18 17 17 16 16 16 16 15 15 16 15 15 15
15 16 16 17 18 18 18 18 18 18 17 17 17 17 17 17 17 17 18 18 18 18 18 18 18 18 19 19 19 19 19 20 20 20 21 21 21 20 19 19 19 19 19 19 19 19 19 18 17 16 17 16 16 16 17 17 18 18 18 18 18 18 17 17 16 16 16 16 15 15 15 15 15 15
15 15 16 16 17 18 18 18 17 17 17 17 17 17 17 17 17 17 17 17 17 18 18 18 18 18 18 18 19 19 19 20 21 21 20 20 20 20 19 19 18 18 18 18 18 19 19 18 17 17 17 17 17 17 17 18 18 18 18 18 18 18 17 17 17 17 16 16 16 16 15 15 14 14
15 15 16 16 17 18 18 17 17 17 17 17 16 17 17 17 16 17 17 17 17 17 18 18 18 18 18 19 19 19 20 20 21 20 20 20 20 19 19 19 18 18 18 18 18 18 18 18 18 17 17 17 17 17 18 18 18 18 18 18 18 17 18 18 18 17 17 16 16 16 16 15 15 14
Height
839 840 841 841 841 841 842 842 843 843 844 845 847 848 848 849 850 850 852 851 849 849 849 849 852 854 855 856 857 857 858 858 858 858 859 859 859 859 859 860 860 861 861 861 861 861 860 860 859 858 858 857 856 856 855 855 854 854 853 853 853 853 852 852 852 851 851 850 850 850 850 850 849 849
837 838 839 840 840 840 841 841 842 842 844 845 845 847 847 848 848 848 850 850 848 847 847 848 850 852 853 855 855 856 857 857 857 858 858 858 858 858 858 859 859 859 860 860 860 860 859 858 858 857 856 856 855 855 854 854 853 853 852 852 851 851 851 850 850 850 849 849 848 848 848 848 848 847
834 835 837 838 838 839 840 840 841 842 843 844 844 845 846 847 848 847 848 849 848 847 847 848 849 851 852 854 854 855 856 856 856 857 857 857 857 857 857 858 858 858 859 859 859 858 858 857 856 856 855 854 854 853 853 853 852 852 851 851 850 850 849 849 848 848 848 847 847 846 846 846 846 846
832 833 834 835 836 838 838 839 840 841 841 842 843 844 845 846 847 847 848 848 847 847 847 848 849 850 852 852 853 854 855 855 855 856 857 856 856 856 856 856 857 857 857 857 857 857 856 855 855 854 854 853 853 852 852 852 851 851 850 850 849 849 848 847 847 846 846 845 845 845 844 844 844 844
830 830 831 833 834 835 836 837 838 839 840 841 841 842 843 844 845 846 846 847 846 847 847 848 848 849 850 851 852 853 853 854 854 855 855 855 855 855 856 856 855 856 856 856 855 855 854 854 853 852 852 852 851 851 851 850 850 849 849 848 848 847 846 846 845 845 844 843 843 843 842 842 842 841
827 828 828 829 831 833 834 835 836 837 838 839 839 840 841 841 842 843 845 845 845 845 846 847 848 848 849 850 850 851 852 852 853 853 854 854 854 854 855 855 854 853 854 853 853 853 853 852 851 851 850 850 850 849 849 849 848 848 847 847 846 845 845 844 843 843 842 841 841 840 840 840 839 839
824 825 826 827 828 829 831 833 834 834 835 836 837 838 838 839 840 841 842 843 844 843 844 845 846 847 848 849 849 850 851 851 851 852 852 853 853 853 853 853 852 851 852 852 852 851 851 850 850 849 849 848 848 848 848 847 847 846 846 845 844 844 843 842 842 841 840 839 839 838 838 838 837 837
821 822 823 824 824 826 827 829 831 832 833 834 835 835 836 837 838 839 840 841 842 842 842 843 844 844 846 847 848 848 849 849 850 850 851 851 851 851 851 851 851 850 850 850 850 849 849 848 848 847 847 846 846 846 846 846 845 845 844 843 843 842 841 841 840 839 839 838 837 836 836 836 835 835
817 818 819 820 821 822 824 825 827 828 830 831 832 833 834 835 836 837 838 839 840 841 840 841 842 843 843 845 846 847 847 848 848 849 849 849 849 850 850 850 849 848 848 848 848 847 847 846 846 845 845 844 845 844 844 844 843 843 842 841 841 840 839 839 838 838 837 837 836 835 834 834 833 833
813 814 815 817 818 818 819 821 823 824 826 828 829 830 831 832 834 835 836 837 838 839 839 839 840 841 842 843 844 845 845 846 846 847 847 847 847 848 848 848 848 847 846 846 846 845 845 844 844 843 843 843 843 842 842 842 841 841 840 839 839 838 838 838 837 836 836 835 835 834 833 832 832 831
809 810 811 813 813 814 815 816 818 820 822 824 826 827 829 830 831 832 833 834 835 836 837 837 838 838 839 841 842 843 843 844 844 845 845 845 845 845 846 846 846 845 845 844 844 843 843 843 842 841 841 841 841 841 840 840 839 838 838 837 837 837 836 836 836 835 835 834 833 833 832 831 830 830
805 806 807 808 809 810 811 812 814 815 818 820 822 824 826 827 828 829 831 832 833 834 834 835 835 836 837 838 839 840 841 842 842 842 842 842 842 842 843 843 843 843 843 842 842 841 841 841 841 840 839 838 838 838 838 837 837 836 836 836 835 835 835 834 834 834 833 832 832 831 830 830 829 828
801 802 803 804 804 805 806 808 810 812 813 815 818 820 822 824 825 826 828 828 830 831 831 832 833 833 834 835 836 837 838 838 839 839 840 840 839 840 840 841 841 841 841 841 840 840 840 840 840 839 838 837 837 836 835 835 835 835 834 834 834 833 833 832 832 832 831 831 830 829 828 827 827 826
797 798 799 800 801 802 803 805 807 809 810 811 813 815 817 819 821 823 824 825 826 827 828 829 830 830 831 832 833 834 834 835 836 837 838 837 837 838 838 838 839 839 839 839 839 838 839 838 838 837 837 836 836 835 834 834 833 833 833 832 832 831 830 830 830 829 829 828 828 827 826 825 824 823
793 794 795 796 797 798 799 801 803 806 807 808 810 812 813 815 817 818 820 821 822 824 824 825 826 826 827 828 829 830 831 833 834 835 835 835 836 836 836 836 836 837 837 838 837 837 837 836 836 836 835 835 835 834 833 832 832 831 831 831 830 829 829 828 828 828 827 827 826 825 824 823 822 821
788 789 790 791 793 794 795 797 800 802 804 805 806 808 809 811 813 814 816 817 819 820 821 821 822 823 824 825 826 827 828 829 831 832 833 834 834 834 834 834 834 835 835 836 836 835 835 835 834 834 833 833 833 832 831 831 830 830 829 829 828 828 827 827 827 826 826 825 825 824 823 822 821 820
783 783 784 786 788 789 790 792 795 796 799 801 803 805 806 807 809 811 812 814 815 816 817 818 818 819 820 821 822 823 825 826 827 829 830 831 832 832 832 832 833 833 833 834 835 834 833 833 833 832 832 832 831 830 829 829 828 828 827 827 826 826 826 825 825 825 824 824 823 823 822 820 819 818
777 777 778 779 781 783 784 786 789 791 793 796 798 801 802 804 805 806 808 810 811 813 813 814 815 816 817 818 819 821 822 823 824 825 827 829 830 830 830 831 831 832 832 833 833 832 832 831 831 830 830 830 830 829 828 827 826 826 825 825 825 824 824 824 824 823 823 822 822 821 820 819 818 816
772 772 772 773 775 777 778 779 782 785 788 790 793 796 798 799 801 802 803 805 807 808 809 811 812 813 814 816 817 818 820 821 822 823 825 826 828 829 829 829 830 830 830 831 831 831 830 830 829 829 829 828 828 827 826 825 824 824 823 823 823 823 822 822 822 821 821 820 820 819 818 817 816 814
766 766 767 768 768 770 771 772 775 780 783 785 788 791 793 795 796 797 798 799 802 804 806 807 809 810 811 813 814 816 817 818 820 822 823 825 826 827 828 828 828 827 827 828 829 829 829 828 828 828 827 827 826 826 825 823 822 822 821 821 820 820 820 820 820 820 819 818 818 817 816 815 814 812
759 760 762 764 764 764 765 767 769 774 778 781 782 785 788 790 791 792 794 796 798 800 802 804 806 808 809 810 811 813 814 816 818 820 821 822 824 825 826 826 825 824 823 825 827 827 827 827 827 827 826 826 825 824 823 821 820 820 819 819 818 818 818 818 818 818 817 817 816 816 815 814 812 811
753 754 756 759 759 759 759 761 764 768 772 775 777 779 782 785 786 787 790 792 794 797 799 801 803 805 807 808 809 810 812 814 815 817 818 820 821 822 822 821 821 821 822 822 824 825 826 826 826 826 825 824 823 821 821 820 819 818 817 817 816 816 817 817 816 816 815 815 814 814 813 812 811 809
748 749 751 752 754 754 754 755 757 761 765 768 771 774 777 779 780 782 785 787 788 791 795 798 800 802 804 806 807 808 809 811 813 815 816 817 818 818 817 817 818 820 820 820 821 823 824 824 825 825 824 822 820 819 819 819 818 817 816 815 815 815 815 814 814 813 813 812 812 812 811 810 809 808
743 744 745 745 747 749 749 749 750 753 757 761 765 768 770 772 774 777 780 782 782 786 790 794 797 799 801 803 804 805 807 809 811 813 814 815 815 816 816 816 817 818 818 818 820 822 823 823 823 824 823 821 819 818 817 817 816 815 814 814 814 813 813 812 812 811 810 810 809 809 808 808 808 807
736 737 738 738 739 742 744 744 743 746 750 755 759 761 762 766 769 773 775 776 778 783 787 790 793 796 798 800 802 803 804 806 807 810 811 812 813 814 814 814 815 815 816 816 818 820 821 822 822 823 822 820 818 816 815 815 814 813 812 812 812 812 812 811 810 809 808 808 807 807 806 806 806 804
728 728 730 731 731 733 736 738 738 740 744 749 752 754 756 760 765 768 770 772 775 779 783 786 789 791 793 795 797 798 799 801 803 805 807 809 810 811 812 812 812 813 814 815 817 818 820 820 821 821 821 819 817 815 814 813 811 810 810 810 810 810 810 809 808 808 807 806 806 805 804 804 803 802
720 721 722 724 725 727 730 733 733 735 738 742 746 749 752 756 760 764 767 768 771 774 778 781 783 785 786 788 789 790 792 794 798 801 803 805 807 808 809 810 810 812 813 814 815 816 817 818 819 820 820 818 816 814 812 810 809 808 808 808 808 808 808 807 806 806 805 805 804 803 803 802 800 799
716 716 716 718 719 722 725 727 728 730 733 736 741 745 748 751 755 759 761 763 765 769 772 775 778 779 780 781 782 783 784 786 790 795 799 802 803 805 807 807 808 810 811 812 814 815 815 816 818 819 818 817 815 813 810 809 807 806 806 806 806 806 806 805 805 804 803 803 802 801 801 799 798 797
715 714 715 716 716 717 720 722 724 726 729 732 736 741 744 747 749 752 754 757 760 764 767 771 774 776 778 780 781 783 783 783 785 791 796 798 799 802 804 805 806 808 809 810 812 813 813 814 816 817 817 816 814 811 809 808 806 805 804 804 804 804 804 803 802 802 801 801 800 799 798 797 796 795
712 713 715 717 716 715 717 720 721 723 725 729 733 736 739 741 742 744 747 750 754 758 762 766 770 773 776 779 782 784 784 783 784 789 793 795 797 799 801 803 804 806 807 808 809 810 811 812 814 815 815 814 812 810 808 807 804 803 802 802 802 802 801 801 800 800 799 798 798 797 796 795 794 793
708 711 714 716 715 716 717 718 719 720 723 725 728 730 732 734 736 737 740 743 747 752 756 760 764 767 771 775 779 781 782 783 784 788 791 793 794 796 799 801 802 803 804 805 806 807 809 810 812 813 813 812 810 808 807 805 803 801 800 800 800 799 799 798 798 797 797 796 796 795 794 793 792 790
706 710 712 712 714 716 715 716 717 719 720 722 723 724 727 730 732 734 737 741 744 748 752 756 760 763 767 770 773 776 779 782 784 786 790 791 792 794 796 798 799 800 801 801 803 804 806 808 809 810 810 810 808 807 805 804 801 799 798 797 797 797 796 796 796 795 795 794 794 792 791 790 789 788
701 704 704 706 709 712 711 709 710 712 714 717 719 721 723 726 728 729 731 735 739 743 747 751 755 759 762 765 767 771 775 779 781 784 788 790 790 792 793 795 796 797 797 798 799 801 803 805 807 807 808 808 806 805 804 801 799 797 795 794 794 794 794 794 794 793 793 793 792 790 789 788 787 785
696 699 699 698 701 704 706 705 705 706 708 712 715 718 720 721 722 723 725 728 733 738 742 745 749 753 756 759 762 766 771 775 778 781 784 787 788 789 790 791 792 793 794 795 796 798 800 803 804 805 805 805 804 802 801 799 796 794 792 792 792 792 792 792 792 792 791 791 790 788 786 785 784 783
689 692 692 692 694 697 701 704 705 705 707 710 713 714 715 715 715 715 718 721 726 732 736 740 744 747 749 753 757 761 768 773 775 777 781 785 786 787 788 788 789 790 791 792 793 796 798 800 802 803 803 802 800 798 795 793 793 792 790 789 789 789 790 790 790 790 790 789 788 786 783 782 781 780
678 679 680 682 684 687 690 694 697 696 696 700 704 708 710 710 708 707 708 711 718 723 728 733 737 740 743 747 752 758 765 769 771 773 777 781 783 785 785 785 785 786 788 789 790 793 795 797 799 799 798 797 795 791 787 787 789 789 788 787 787 787 788 788 788 788 787 786 785 784 781 779 778 777
671 670 670 671 673 675 677 680 682 682 682 684 688 695 700 701 701 701 702 705 711 716 720 725 730 734 738 742 747 754 761 764 765 768 772 776 779 781 782 782 782 783 784 786 788 790 792 794 795 795 794 793 790 787 783 783 785 786 785 785 785 785 785 786 786 785 785 784 783 781 779 777 775 774
665 664 663 661 662 662 663 665 668 670 671 672 674 679 685 690 694 697 700 702 705 709 715 720 725 729 733 738 744 751 757 758 759 763 767 771 775 777 777 778 778 779 781 783 785 787 789 791 792 792 791 790 788 785 782 782 782 783 782 782 782 782 782 783 783 783 782 782 781 779 778 776 773 772
659 657 656 654 652 651 651 652 654 656 659 660 662 666 673 680 685 690 695 698 700 703 709 716 721 725 729 734 741 748 751 753 755 759 762 766 770 772 773 773 774 775 777 780 782 784 786 788 788 788 788 788 786 784 783 782 781 781 780 780 780 779 780 780 780 780 780 780 779 777 775 773 771 769
651 649 647 645 642 640 639 639 639 641 643 647 651 655 661 668 673 677 683 690 694 698 704 711 717 722 726 731 738 744 746 748 752 756 759 762 765 767 769 770 771 772 774 776 778 780 782 783 784 785 786 786 785 785 784 783 781 779 779 777 776 776 777 777 778 778 778 778 777 775 773 771 768 767
644 641 638 635 633 630 626 624 625 627 630 635 641 646 650 655 660 665 672 680 686 691 699 706 712 717 723 729 734 738 740 744 749 753 757 759 760 762 764 766 768 769 771 773 774 776 778 779 780 782 783 784 784 784 783 782 779 777 775 774 773 773 773 774 775 776 776 776 776 774 771 769 767 764
637 634 630 628 626 623 619 617 617 618 620 625 632 638 644 649 655 661 668 675 681 687 694 701 708 713 719 725 729 732 736 740 745 749 753 755 757 759 761 763 765 767 768 770 771 774 776 776 777 779 781 782 783 783 781 779 776 775 773 772 771 770 770 770 772 773 773 774 774 772 770 768 765 763
631 627 623 620 618 616 614 613 612 613 615 620 626 634 640 646 651 657 663 670 677 684 691 698 705 712 717 723 726 728 732 737 742 745 748 751 753 756 758 761 763 764 766 768 770 772 773 774 775 777 779 780 781 781 779 776 775 773 772 771 769 768 768 768 768 769 769 770 770 769 768 767 765 762
624 620 616 613 611 609 609 608 609 611 614 618 623 629 635 641 646 652 658 666 674 681 689 697 705 711 717 720 723 725 730 735 738 741 744 748 751 753 756 758 761 763 764 766 768 769 770 772 773 775 776 777 777 777 775 774 773 771 770 769 768 767 766 766 765 766 766 766 766 765 765 764 763 761
618 614 610 608 606 604 604 605 606 608 611 615 620 625 632 637 643 648 654 663 672 680 689 697 704 711 715 718 720 723 728 732 735 739 742 745 749 751 753 756 759 761 762 764 765 766 768 770 771 772 773 773 773 773 773 772 771 769 768 767 766 765 764 763 764 764 765 764 764 763 762 761 760 758
Wind_Speed
15 15 15 14 11 10 11 11 10 10 9 8 8 8 9 7 4 3 4 4 7 9 10 9 10 10 9 9 9 9 9 10 10 8 7 9 10 10 9 11 11 9 8 7 7 8 9 10 11 13 14 15 16 16 16 16 16 15 15 15 15 15 15 16 16 17 17 17 17 17 18 19 19 20
15 15 15 15 13 12 12 12 11 11 10 9 9 9 10 9 6 4 3 4 6 8 6 6 11 12 10 9 8 8 9 11 10 8 8 9 11 11 9 10 11 10 8 7 7 8 9 11 12 13 14 15 16 16 16 16 16 16 16 16 16 16 16 16 16 16 16 16 16 17 17 18 19 20
16 16 16 16 15 14 13 13 11 11 12 12 11 11 11 11 10 8 5 4 6 7 6 5 9 10 9 9 8 8 8 10 10 9 8 10 12 13 11 11 11 10 9 8 7 9 10 11 13 14 14 15 15 15 15 15 15 16 16 17 17 18 18 18 17 17 16 16 15 16 16 16 17 18
17 18 18 17 16 15 14 14 13 12 13 13 12 12 12 11 11 10 8 6 5 7 7 5 5 7 8 8 8 9 8 9 10 10 9 11 13 14 13 12 12 10 9 9 9 10 11 13 13 14 14 14 14 14 15 15 16 16 17 17 18 18 18 18 18 18 18 17 17 17 17 17 17 18
18 19 19 18 17 16 15 15 14 14 14 14 13 13 13 13 13 12 11 9 7 7 8 7 6 7 8 9 9 10 9 8 10 10 11 12 13 13 12 12 12 12 12 12 12 12 13 14 14 14 14 14 14 15 16 16 17 17 17 17 17 18 18 19 19 19 19 19 19 18 18 18 18 18
19 19 20 20 19 18 17 16 15 15 15 15 15 14 14 14 14 14 13 11 9 9 9 9 7 6 8 9 10 11 11 10 10 11 12 12 12 12 12 11 13 14 14 14 14 14 15 14 14 14 14 14 15 16 17 17 17 17 17 17 17 17 18 19 20 21 21 20 19 17 17 16 17 17
21 20 21 22 21 19 19 18 17 16 16 16 16 16 16 15 14 15 15 13 10 10 10 10 9 8 9 10 10 11 12 11 12 12 12 12 12 12 12 12 12 13 13 13 14 15 15 14 13 13 14 15 16 17 17 17 16 16 15 16 17 18 20 21 21 21 20 19 18 17 16 15 15 16
24 23 22 23 22 21 20 19 18 17 17 17 17 17 16 16 15 15 16 15 12 10 10 10 11 10 10 11 10 11 11 12 12 13 13 13 13 13 13 12 12 13 13 13 15 16 15 13 12 12 13 14 15 15 15 15 15 15 15 16 18 19 20 20 19 18 17 17 17 18 17 17 16 16
25 24 24 23 23 23 22 21 20 20 19 19 18 17 17 17 16 15 15 16 14 12 11 11 11 10 10 11 11 11 12 12 12 13 13 13 13 13 13 13 12 13 14 15 16 16 14 12 10 10 12 13 13 14 14 13 13 14 15 17 17 17 17 16 16 16 16 17 18 18 18 18 16 16
26 26 25 24 25 25 24 23 22 21 21 20 19 19 18 17 17 16 16 15 15 14 12 11 12 11 11 12 12 13 13 12 12 12 13 13 13 14 13 13 12 11 12 13 13 13 12 11 10 10 12 13 13 13 12 12 13 13 12 13 13 13 13 14 16 17 17 17 17 17 18 17 17 16
26 27 27 26 26 27 26 25 24 23 23 22 21 20 19 18 18 17 16 16 15 15 14 13 12 13 13 12 12 12 13 13 12 12 12 12 12 13 13 14 13 11 10 10 11 12 12 11 11 12 13 13 12 11 11 12 12 10 9 9 10 10 11 14 16 18 18 17 18 18 18 18 18 18
27 27 27 27 27 28 28 27 26 25 25 23 22 21 20 19 18 18 17 17 16 15 15 14 13 13 13 13 12 12 13 14 14 13 12 12 11 11 13 14 14 12 10 9 10 10 10 10 11 11 12 13 12 11 12 14 13 9 8 9 10 11 12 14 16 17 18 18 19 20 20 21 21 22
27 27 27 27 27 29 30 30 29 27 26 25 23 23 22 21 20 19 18 17 17 16 15 15 14 13 14 14 13 13 14 15 13 12 12 12 11 11 12 13 13 12 10 8 8 8 7 9 9 9 10 11 11 11 12 11 9 8 9 9 11 13 15 16 17 18 20 21 22 23 23 23 23 23
28 28 27 27 28 29 31 32 32 29 29 28 25 24 24 24 22 20 19 18 18 17 16 15 15 14 14 15 15 15 15 14 13 12 12 11 11 10 10 10 10 10 8 7 8 8 8 9 10 9 10 10 10 10 7 5 5 7 9 12 15 18 18 18 18 18 19 20 21 21 21 20 20 19
28 28 28 27 27 30 32 34 34 33 31 31 29 26 26 26 25 23 21 20 19 18 16 16 16 16 15 15 16 16 15 14 14 13 12 11 10 10 10 9 8 8 9 7 8 9 9 8 9 10 9 9 9 8 7 7 9 12 14 16 19 18 17 15 14 14 15 16 17 17 17 17 17 16
28 28 28 27 26 28 32 34 35 35 34 33 33 31 28 28 28 26 24 22 20 19 18 17 17 16 16 16 16 16 15 15 14 13 13 12 11 10 10 9 8 8 8 7 8 10 9 8 9 10 9 9 9 8 9 12 14 15 15 16 15 14 13 13 13 14 14 15 16 16 17 17 17 18
29 28 27 27 26 26 31 34 34 36 37 36 35 34 32 30 30 30 27 25 22 20 19 18 18 17 16 16 16 16 15 15 15 14 13 12 12 11 11 10 8 6 6 7 8 10 9 8 9 9 9 9 8 9 11 14 14 13 14 14 13 13 13 14 14 15 15 16 17 17 18 18 18 18
31 29 28 28 28 27 30 35 34 34 37 38 37 37 35 32 31 32 31 29 27 24 21 18 18 18 17 16 16 16 16 16 15 15 14 13 12 12 10 9 8 6 7 7 8 9 8 7 8 9 9 9 8 9 11 12 12 13 14 13 13 14 14 14 14 15 16 17 17 17 18 18 18 18
32 31 30 30 30 29 31 36 37 32 32 35 38 37 35 32 30 31 33 32 30 29 25 21 19 18 18 17 15 15 16 16 15 14 12 11 11 10 8 7 8 9 10 10 8 7 8 7 8 8 9 9 9 9 10 12 14 13 12 12 13 15 15 14 15 16 16 16 17 17 17 17 17 18
32 31 32 31 32 31 31 36 39 36 31 30 33 34 33 31 29 29 32 33 32 30 27 24 21 18 18 19 18 16 16 17 15 12 10 9 8 7 6 7 9 11 11 13 12 9 8 7 7 9 10 9 10 10 11 12 12 10 10 12 14 15 14 14 15 17 17 17 16 16 16 15 15 16
33 34 35 34 32 32 33 36 40 40 35 29 29 31 30 29 29 27 28 31 33 32 29 26 25 22 20 20 20 20 19 18 15 12 11 11 10 9 8 8 9 10 8 12 13 11 8 6 7 10 11 10 11 11 10 8 7 7 10 13 14 13 13 15 16 17 18 16 15 15 15 15 15 16
33 34 37 37 35 32 33 37 39 41 39 31 28 29 28 27 27 27 25 26 30 32 31 28 27 25 22 20 20 22 22 20 17 14 13 12 12 12 13 11 10 10 8 9 12 10 7 7 8 9 11 11 11 10 7 5 6 9 10 12 12 13 14 16 17 17 18 16 15 15 15 15 15 16
33 34 36 39 40 36 34 37 40 42 42 36 30 28 28 26 27 27 25 24 27 32 32 28 26 25 23 20 20 23 23 21 19 15 14 13 13 13 12 10 8 8 8 9 12 9 7 7 8 9 10 9 8 7 6 6 7 7 8 10 12 13 14 15 16 17 17 16 15 16 17 16 16 16
34 34 35 39 44 43 37 38 41 43 44 41 33 29 28 27 27 27 25 25 28 31 30 27 25 24 23 20 19 21 23 22 20 17 15 14 13 12 11 9 9 9 6 9 12 9 7 7 8 10 10 8 8 8 7 7 6 7 8 9 10 11 13 14 15 16 16 15 15 16 16 15 15 15
35 36 36 38 45 48 45 42 42 43 45 43 37 32 32 31 28 26 25 26 28 29 26 25 23 22 22 20 19 19 20 20 20 19 18 16 15 13 12 11 11 10 6 10 11 7 6 7 9 11 11 11 10 10 7 7 8 7 7 7 9 11 12 13 15 15 14 14 14 14 13 12 14 16
35 37 38 38 42 47 50 49 45 42 44 45 41 36 35 33 29 28 26 26 28 27 25 24 24 24 24 24 23 21 20 19 20 20 19 18 17 15 13 11 11 8 6 8 9 7 6 7 10 11 12 11 10 10 8 8 7 5 5 7 10 11 12 13 14 13 12 12 13 13 14 15 17 18
35 35 38 39 40 45 51 53 48 44 44 46 45 40 36 33 32 30 27 27 29 28 26 26 27 28 28 27 27 26 23 21 22 21 20 20 18 16 14 11 10 9 6 5 6 7 7 8 9 12 12 11 10 10 9 8 6 5 6 9 10 11 12 12 12 12 12 12 12 13 14 16 17 16
34 34 37 39 38 41 50 55 52 47 46 47 46 43 38 35 34 31 29 31 33 30 27 28 28 29 30 30 29 29 28 25 24 23 21 20 19 16 14 11 10 10 9 8 8 8 8 9 10 12 13 11 11 10 9 8 7 6 7 9 10 11 12 12 12 13 12 12 12 13 14 15 15 16
38 35 35 36 37 41 47 53 52 50 48 48 47 45 41 38 38 34 31 35 37 30 26 28 27 26 29 29 28 29 28 25 25 25 22 20 19 17 14 12 11 11 11 10 10 10 10 11 12 13 13 12 12 11 10 9 9 8 7 9 11 12 12 13 12 11 11 12 13 13 13 15 16 17
41 38 34 32 33 37 44 49 51 51 49 48 48 47 44 42 41 37 34 38 40 32 26 28 28 27 28 26 24 26 26 24 25 27 24 21 19 17 15 14 13 12 12 12 11 11 11 12 13 14 13 13 13 12 11 10 10 9 8 9 11 12 12 12 11 11 11 12 12 13 14 16 17 18
45 41 36 33 31 33 41 47 48 49 50 49 50 50 47 43 40 38 37 41 42 36 30 30 29 28 26 24 22 24 24 23 25 27 24 21 20 18 16 15 13 13 13 13 13 13 13 13 14 15 14 14 14 13 12 11 11 10 10 10 11 12 12 11 11 11 11 11 12 14 16 17 17 17
48 37 30 26 23 25 37 43 42 42 45 47 50 51 48 42 37 37 38 38 37 35 32 30 28 26 26 24 24 26 24 22 24 26 24 21 20 18 17 16 14 13 13 13 13 14 15 15 15 15 15 16 15 14 12 12 12 11 10 10 11 12 12 12 12 11 10 11 14 16 16 16 17 17
46 33 28 27 22 24 34 40 39 38 42 46 48 49 45 38 35 38 39 37 35 33 31 29 28 28 27 25 24 26 25 23 24 26 24 22 20 19 18 17 15 13 12 12 13 15 16 17 16 16 17 17 17 15 14 13 13 12 10 10 10 11 11 11 11 11 11 12 14 16 16 16 16 16
40 30 30 33 31 30 33 33 33 35 39 43 44 44 42 38 37 39 41 38 35 34 33 32 31 30 29 28 26 26 26 26 25 25 25 22 20 18 17 16 15 14 12 11 12 13 15 16 16 16 16 18 19 20 19 17 14 11 10 9 9 10 11 11 11 12 12 13 15 16 17 16 16 16
39 32 31 31 32 33 31 29 30 33 35 37 38 39 40 39 39 41 41 40 38 36 35 34 32 31 29 28 27 28 27 26 25 24 24 22 19 17 17 16 15 14 13 13 12 12 13 14 15 15 16 18 19 21 25 25 19 12 10 10 9 9 11 11 12 12 13 14 15 16 16 17 17 16
37 37 36 34 34 35 33 33 36 38 38 38 39 39 39 38 39 42 44 44 42 39 37 35 35 35 32 29 28 29 29 27 25 24 24 22 19 18 17 16 15 14 13 13 13 12 13 14 15 15 15 15 13 13 17 22 22 16 10 9 9 9 10 11 12 13 14 14 15 15 16 18 18 18
34 36 38 37 36 37 37 39 42 42 41 43 43 41 41 41 40 42 45 46 44 40 39 39 40 37 34 32 31 31 30 29 27 25 24 22 20 19 18 17 15 15 14 13 13 13 14 15 15 15 14 11 8 7 6 12 20 19 11 8 8 9 10 11 13 13 14 14 15 15 16 18 19 20
36 35 36 38 39 41 42 45 45 43 42 44 45 44 45 44 42 40 42 44 43 40 39 40 39 35 33 32 32 31 29 29 27 24 24 23 21 20 19 17 15 15 14 13 13 14 15 15 15 16 14 10 8 7 4 7 15 17 15 11 9 9 10 11 12 13 13 14 15 16 17 18 20 22
40 38 37 38 40 43 45 46 48 47 46 47 48 48 46 44 42 41 42 42 41 41 40 38 36 34 32 32 32 31 28 27 25 23 22 23 21 20 19 17 15 15 14 14 14 14 16 17 17 16 16 14 11 8 6 5 7 9 11 12 13 13 12 11 11 13 14 15 16 17 18 19 20 21
39 40 41 41 42 45 48 49 50 51 50 49 49 50 50 47 45 46 45 43 41 41 40 37 35 34 32 31 32 30 27 25 24 22 21 21 22 21 19 17 15 14 14 14 15 15 16 18 18 17 16 14 11 8 8 10 12 12 13 16 16 15 14 13 12 13 14 15 16 18 19 19 19 18
34 38 42 43 42 45 50 52 52 52 50 49 49 51 51 50 49 49 47 44 42 41 39 37 36 35 33 32 33 31 27 25 25 23 22 22 21 20 19 17 16 15 14 14 15 15 16 17 19 19 17 12 8 9 10 11 11 12 13 13 12 11 13 14 14 13 14 15 16 17 18 18 19 18
31 35 40 43 44 44 46 49 50 49 48 48 49 50 48 46 47 48 46 44 42 41 38 37 37 36 34 34 33 31 28 26 24 23 23 22 19 18 19 18 16 15 15 14 14 15 14 13 14 15 15 13 11 11 11 11 10 11 11 10 10 11 12 13 14 15 15 15 15 17 18 17 16 15
30 34 38 41 43 43 43 44 46 45 45 46 46 45 42 41 43 46 46 43 41 41 38 36 36 35 33 33 33 30 26 24 24 24 22 20 18 17 18 19 17 16 15 14 14 14 14 12 11 10 12 13 14 14 14 13 12 12 11 11 10 9 9 11 15 17 17 16 17 19 19 16 14 14
30 33 35 38 40 40 39 40 40 39 40 43 44 43 43 42 43 46 46 44 41 41 39 36 35 35 32 31 31 29 25 22 23 22 20 18 18 17 17 18 17 16 15 14 14 15 14 12 11 12 13 15 15 15 15 14 12 12 11 10 9 9 10 11 13 14 15 16 18 19 18 16 16 17
31 32 32 32 35 37 36 36 39 40 41 41 41 42 44 44 43 44 45 44 42 40 38 35 34 34 32 29 28 27 24 21 20 19 18 18 18 17 16 17 17 16 16 15 14 14 14 13 13 14 14 15 15 15 14 14 13 12 12 11 11 11 11 10 9 11 13 16 17 17 15 14 15 16
Wind_Direction
211 211 207 211 216 204 203 207 199 200 201 194 194 196 202 220 237 213 194 207 215 208 206 198 178 180 193 198 208 215 217 227 234 229 213 213 228 237 236 233 237 244 249 261 279 285 287 289 291 293 293 294 295 297 299 301 302 301 298 296 295 292 290 289 289 290 290 290 288 285 283 283 284 284
207 211 207 206 213 210 204 208 205 197 195 195 196 197 202 211 225 227 208 220 221 215 226 198 170 176 191 196 207 210 214 225 220 209 206 207 221 233 232 231 234 238 246 262 276 281 284 287 287 287 286 286 288 291 294 297 299 301 302 301 299 298 297 296 296 296 295 295 293 290 286 282 281 282
205 208 208 205 209 210 204 207 209 200 194 197 199 200 203 205 211 223 227 218 210 220 244 211 168 172 186 198 210 205 211 226 216 203 209 214 222 231 234 235 235 236 247 263 273 279 283 284 283 283 283 283 285 287 290 293 296 297 298 299 298 297 298 299 300 301 300 299 297 295 292 288 284 282
206 206 207 206 206 207 205 206 208 204 199 200 202 200 202 205 205 211 222 227 212 215 237 235 196 193 193 195 207 206 206 223 220 207 211 224 227 231 236 237 236 239 252 265 276 285 287 284 283 282 282 282 284 286 288 290 292 294 294 294 294 294 295 297 298 299 299 299 299 297 295 292 289 285
208 206 205 205 204 204 204 204 205 205 201 201 205 204 201 203 205 204 210 223 222 212 222 236 234 216 200 196 205 210 205 211 220 215 213 223 228 229 232 235 240 247 255 265 276 285 289 286 283 282 281 281 283 283 285 287 289 292 293 293 294 294 295 297 297 298 299 300 299 298 296 293 289 286
209 206 204 203 202 203 205 204 205 204 202 202 204 205 204 204 205 203 205 214 222 218 213 220 232 217 204 209 208 209 212 209 213 216 216 221 227 229 232 238 247 251 253 261 270 280 289 288 283 282 282 281 282 282 284 287 289 291 293 294 296 297 298 298 299 300 301 302 301 300 298 295 292 290
211 208 205 203 200 201 204 205 206 205 203 204 205 205 205 206 206 203 204 209 217 223 212 205 216 215 210 220 214 208 217 216 211 216 219 221 226 232 237 244 253 257 256 260 268 278 289 287 280 280 280 279 281 284 287 290 292 294 295 297 297 297 298 299 300 301 301 300 300 300 299 297 295 294
211 209 206 204 201 199 201 203 205 207 205 204 206 207 205 206 208 203 203 208 213 223 217 203 214 221 208 211 215 209 213 217 214 217 222 225 230 235 240 246 253 257 259 260 267 277 288 291 287 285 283 282 284 287 289 291 292 294 294 294 293 293 295 296 298 298 298 297 296 297 298 297 295 294
209 208 207 205 201 199 200 201 202 205 206 205 205 206 204 203 207 204 202 205 209 217 221 208 211 218 204 202 211 209 209 214 217 220 226 230 233 236 242 250 253 255 258 260 263 272 284 291 289 283 285 290 293 295 295 293 292 292 291 288 287 289 292 295 297 298 297 296 295 295 295 296 296 295
209 208 208 206 203 200 200 200 201 202 203 205 205 205 205 202 203 205 203 202 205 212 220 214 206 206 204 204 207 207 210 213 217 223 230 232 234 236 241 251 256 256 258 256 257 265 277 282 280 280 288 296 299 302 303 301 300 297 291 286 283 286 291 295 298 298 296 294 293 293 294 295 297 297
211 210 209 207 205 203 202 200 200 199 200 204 206 205 205 202 201 204 204 203 204 208 214 217 211 206 205 207 209 209 211 217 223 226 227 229 230 228 233 244 251 254 257 259 265 270 268 270 278 282 287 293 297 300 302 304 306 302 290 282 279 283 292 296 297 295 292 291 289 290 291 293 295 297
214 213 211 210 208 205 204 203 200 199 198 200 203 204 204 203 202 203 204 204 205 207 211 214 213 208 204 206 210 209 206 214 223 223 226 235 233 226 232 243 247 252 258 265 277 280 267 266 277 278 280 289 294 295 297 301 303 292 273 274 278 284 293 294 291 289 288 289 290 290 291 291 292 294
217 216 214 214 213 210 208 206 204 202 199 199 200 201 201 202 203 203 204 204 205 207 211 213 213 209 205 204 207 207 206 211 218 221 227 236 237 236 242 245 244 249 255 260 273 279 271 276 285 283 284 290 294 297 298 296 287 269 262 277 292 297 299 297 292 290 289 289 291 291 291 291 291 291
219 218 218 218 217 215 212 210 209 206 204 203 202 200 200 200 200 202 205 205 206 207 210 213 212 209 208 206 205 208 211 213 217 220 223 227 234 242 247 245 243 242 243 254 268 270 272 283 290 290 290 290 293 296 286 249 250 274 289 304 310 309 308 306 301 298 296 294 294 294 294 294 294 295
219 218 219 220 219 218 214 212 211 210 209 208 207 204 203 203 201 202 204 206 206 207 211 214 214 213 212 210 208 209 212 213 216 218 217 220 230 236 239 244 244 234 231 247 266 269 275 283 284 284 286 287 287 278 255 251 280 297 303 308 311 311 312 315 314 310 306 303 301 299 298 299 299 300
219 216 216 218 218 217 215 212 213 214 213 212 211 209 206 207 207 207 207 207 206 208 212 215 217 217 215 212 211 211 210 209 212 217 218 221 226 230 235 244 247 236 233 243 263 272 279 282 276 275 276 278 278 269 267 282 291 294 300 309 315 318 318 319 318 314 310 307 303 300 298 297 297 298
217 214 213 214 213 214 213 210 210 214 214 214 214 213 210 209 212 213 212 210 209 210 213 217 219 218 217 216 214 211 208 205 205 210 216 220 224 227 233 244 252 240 221 227 253 269 276 276 273 276 277 275 273 272 277 285 288 293 304 313 322 327 323 317 314 309 305 303 300 297 296 296 297 298
218 213 210 209 209 210 210 207 205 208 211 213 214 214 212 211 213 216 216 215 213 212 214 219 220 219 218 218 215 209 206 205 204 203 208 218 225 228 231 242 250 237 222 229 249 262 270 276 276 279 282 279 275 273 276 283 291 299 304 309 318 327 327 323 318 312 305 301 298 297 295 293 293 294
221 215 210 208 206 205 206 206 204 202 203 208 210 211 211 212 213 215 217 216 215 215 216 219 220 221 220 218 214 209 205 204 204 201 206 220 225 223 229 237 239 241 235 225 227 248 267 275 279 282 285 284 280 278 280 286 291 293 296 306 318 323 324 324 323 319 312 305 299 297 296 292 290 290
220 219 215 210 206 204 204 206 207 204 200 200 203 205 208 211 214 216 217 217 216 216 217 219 221 223 222 217 213 210 204 199 199 197 199 208 206 208 230 240 245 252 234 205 209 243 262 266 280 288 289 286 282 281 280 280 281 284 296 311 317 319 318 317 315 316 315 310 301 296 297 297 294 293
219 221 220 217 210 205 204 208 209 206 201 196 197 201 204 208 212 215 216 217 218 218 216 218 221 223 225 221 213 208 201 192 190 192 194 200 202 201 211 226 249 261 228 190 202 231 243 253 281 287 285 283 279 278 275 269 274 290 303 311 316 316 315 310 308 311 313 310 304 300 300 299 298 298
220 221 222 220 215 207 205 209 210 207 202 197 195 198 200 203 209 211 210 211 214 216 216 218 220 222 226 225 213 206 202 194 191 194 197 204 209 208 213 227 249 261 244 203 197 206 225 256 278 281 281 280 273 270 272 271 281 294 305 315 317 311 306 302 301 305 306 303 300 299 299 298 297 296
223 222 221 221 219 213 208 209 210 207 203 199 196 197 197 201 206 206 204 203 202 205 208 212 215 218 221 219 208 204 205 203 202 203 206 213 219 225 236 245 244 248 246 213 195 200 231 260 271 272 277 279 270 266 272 273 277 290 302 307 306 301 298 296 297 301 301 297 293 292 293 292 290 288
227 225 222 222 221 217 212 211 209 208 206 202 196 194 196 203 205 200 200 203 198 193 196 201 205 209 208 204 199 201 205 207 208 208 211 217 222 226 233 234 233 243 233 191 187 204 235 254 269 271 270 274 272 268 270 275 283 294 296 295 296 298 299 298 297 299 298 296 294 293 292 290 286 282
229 228 224 223 222 216 213 213 210 208 208 205 199 196 200 207 207 198 197 201 194 185 185 191 194 196 197 197 198 199 201 204 205 206 209 215 219 219 219 221 233 240 202 171 181 197 220 248 269 270 263 263 265 267 272 281 285 287 287 289 293 295 296 294 292 293 295 298 300 299 298 295 289 285
227 228 225 224 223 216 213 215 212 207 207 206 203 202 204 205 204 198 194 191 182 176 179 187 192 196 199 203 205 201 196 199 203 204 206 210 213 215 216 221 231 228 181 170 190 202 215 243 260 261 258 259 264 271 276 275 276 284 291 291 291 290 290 288 288 290 294 297 299 300 299 296 293 291
226 225 225 225 225 218 214 213 211 207 206 206 205 205 202 200 199 197 191 183 175 172 176 186 194 198 199 201 203 197 190 193 200 201 202 205 207 209 209 210 218 220 201 193 212 219 222 235 246 251 255 259 263 269 272 269 275 292 294 292 291 289 288 287 287 289 290 290 294 298 299 298 297 297
230 227 225 225 225 221 215 213 212 209 206 206 206 204 200 196 194 192 188 184 180 176 179 189 195 197 197 199 200 195 190 191 194 196 198 199 198 201 203 200 202 209 213 218 226 227 224 228 240 245 247 251 258 264 269 274 280 285 289 293 292 290 289 287 285 284 284 288 293 296 297 299 300 300
234 235 231 227 226 222 215 212 211 209 207 207 206 203 199 196 193 190 188 186 183 179 182 190 196 198 199 199 199 198 195 190 186 187 193 194 190 191 198 200 203 209 214 220 227 229 226 228 238 244 243 245 252 259 264 271 274 277 283 289 288 287 287 284 280 280 284 288 292 293 295 298 299 298
234 238 240 240 235 225 215 210 209 208 208 207 205 202 199 196 192 190 186 183 182 182 183 190 196 199 197 196 199 199 194 184 179 182 187 187 185 187 192 196 203 212 216 222 227 227 225 227 233 240 243 245 249 255 260 265 270 272 274 278 281 283 283 280 278 281 286 290 292 294 297 298 296 296
234 236 241 249 248 230 215 211 210 208 207 205 202 201 199 195 192 191 187 183 183 185 186 189 195 196 190 189 193 191 184 179 179 182 184 183 183 188 193 196 204 215 220 223 223 220 222 225 228 233 240 245 249 252 255 259 263 266 268 270 273 277 281 283 284 284 287 294 297 297 298 297 295 295
233 234 236 245 246 221 207 204 203 203 203 201 199 198 196 194 192 191 189 186 186 187 187 187 189 187 183 185 183 178 177 178 180 182 185 185 185 188 192 197 205 215 220 221 218 217 219 222 224 230 238 246 250 252 254 255 255 256 261 263 265 270 278 283 287 290 295 299 299 297 296 295 294 295
229 227 226 229 225 209 200 197 194 196 198 198 198 197 194 192 190 188 187 186 186 186 183 181 180 179 181 183 176 171 175 181 182 184 188 188 188 192 196 199 205 212 218 219 215 212 214 219 227 233 237 242 247 249 251 253 251 248 250 256 262 269 277 284 287 292 298 299 296 294 294 293 294 295
225 223 224 223 216 208 204 197 190 192 194 195 196 197 195 193 190 186 185 184 184 183 180 178 177 178 182 182 173 170 178 183 182 185 189 189 192 198 201 202 206 212 219 222 219 213 210 214 224 231 235 242 246 246 244 243 243 243 244 249 257 266 275 284 288 290 294 294 292 292 293 293 295 297
218 218 221 221 214 209 207 202 195 194 193 194 197 198 197 196 191 185 184 183 182 180 179 179 179 178 178 175 169 170 178 182 182 183 185 188 195 203 206 207 209 214 219 221 221 220 214 212 219 227 234 241 244 243 242 238 232 231 239 244 253 266 275 283 288 289 291 290 288 288 291 294 297 298
216 214 216 217 214 207 204 203 201 197 194 194 196 197 198 198 193 187 185 183 182 180 180 180 179 178 174 169 166 171 179 181 180 181 182 188 197 204 210 214 213 215 219 218 216 219 219 217 221 228 237 242 243 246 245 234 223 220 230 243 251 263 275 283 285 285 286 288 288 289 291 294 297 299
224 219 215 215 212 206 201 201 203 202 197 193 193 194 197 197 194 189 185 182 181 181 180 178 176 174 172 168 168 175 180 181 181 181 180 185 198 207 211 214 215 216 219 219 216 218 222 222 224 231 241 249 251 259 248 210 203 205 214 238 257 266 274 281 282 280 283 288 290 292 294 295 296 298
233 228 221 217 213 209 204 202 201 202 199 194 191 192 195 195 192 187 182 179 178 177 177 176 173 170 168 168 171 178 181 180 182 184 180 181 196 209 210 210 213 213 213 217 220 221 223 225 227 231 237 244 253 267 260 192 194 203 209 224 249 265 270 274 277 279 287 293 296 297 297 295 295 296
237 235 230 224 217 212 208 204 201 200 199 196 192 191 192 191 187 182 179 178 176 172 170 171 171 169 168 168 173 180 182 178 181 189 188 185 194 206 207 207 211 210 207 213 219 218 220 225 227 229 235 241 252 271 285 272 252 242 234 240 254 260 258 262 272 280 287 293 297 300 299 296 296 298
241 239 237 232 224 215 210 207 203 200 198 196 193 190 188 186 182 179 177 177 173 168 167 169 169 169 169 171 175 179 180 177 181 190 196 196 197 200 201 204 209 210 208 211 215 216 219 224 226 228 232 238 251 275 286 283 281 275 264 259 258 252 245 248 260 275 285 292 296 298 300 301 303 306
248 244 243 239 231 221 213 208 204 201 197 194 191 189 187 184 180 176 175 174 171 167 167 167 166 167 170 174 175 175 177 179 183 189 198 204 202 197 196 200 206 210 212 213 216 220 225 225 224 225 226 231 252 275 274 268 265 264 263 262 260 257 253 249 249 262 278 287 291 295 298 301 304 306
258 251 248 245 239 231 220 212 206 200 194 190 189 188 185 180 175 171 169 168 168 166 165 164 164 167 171 174 174 173 175 180 186 191 199 205 204 195 192 197 204 209 212 214 217 224 226 218 211 213 219 229 245 255 255 254 258 264 270 275 275 272 263 252 251 264 275 279 284 291 296 300 303 305
265 258 253 248 243 236 226 215 208 200 191 187 185 183 178 172 168 166 164 162 162 161 160 161 164 167 170 173 174 174 175 180 189 195 197 200 201 196 194 198 204 208 211 214 221 225 220 206 194 202 219 229 235 240 246 254 260 265 269 275 280 280 267 256 261 268 269 270 279 285 285 285 288 295
266 263 258 251 245 238 227 214 204 194 188 184 180 174 169 166 163 161 159 157 156 156 157 159 163 167 170 171 172 174 180 189 193 192 191 193 197 200 197 195 199 207 214 216 218 220 217 211 208 214 222 227 230 236 244 253 260 265 271 277 285 289 281 272 269 267 264 269 281 286 281 275 278 285
270 269 263 255 248 239 225 209 196 188 182 177 171 166 164 162 159 155 154 152 152 153 155 158 162 167 171 170 169 174 185 191 187 184 186 191 196 200 199 194 194 204 214 216 214 213 215 218 221 221 223 230 236 240 246 254 259 265 271 275 274 273 275 279 283 281 280 285 292 293 289 284 286 291